NKS462 KCLT-KATL

Flight info

Callsign NKS462
Flight time 0h 43m
Altitude 30000
Route BOBZY5 TNSLY LEAVI OZZZI2
Aircraft A21N/M-SDE2E3FGHIRWXY/LB1

Departure

Time 2026-05-07 14:15
Airport Charlotte Douglas International Airport (KCLT)

Arrival

Time 2026-05-07 14:58
Airport Hartsfield Jackson Atlanta International Airport (KATL)
Time Latitude Longitude Altitude Speed Heading
2026-05-07 13:56 35.22217 -80.94838 730 ft 0 kts 49°
2026-05-07 14:03 35.22208 -80.94850 730 ft 2 kts 49°
2026-05-07 14:03 35.22198 -80.94864 730 ft 1 kts 50°
2026-05-07 14:03 35.22193 -80.94872 730 ft 1 kts 38°
2026-05-07 14:03 35.22183 -80.94878 730 ft 1 kts
2026-05-07 14:04 35.22171 -80.94875 730 ft 1 kts 332°
2026-05-07 14:04 35.22161 -80.94865 730 ft 2 kts 298°
2026-05-07 14:04 35.22157 -80.94852 729 ft 0 kts 270°
2026-05-07 14:04 35.22158 -80.94843 729 ft 1 kts 265°
2026-05-07 14:05 35.22158 -80.94842 729 ft 0 kts 266°
2026-05-07 14:08 35.22158 -80.94843 729 ft 0 kts 266°
2026-05-07 14:08 35.22157 -80.94855 729 ft 5 kts 266°
2026-05-07 14:08 35.22154 -80.94926 729 ft 10 kts 266°
2026-05-07 14:09 35.22116 -80.94983 729 ft 10 kts 192°
2026-05-07 14:09 35.22033 -80.94988 727 ft 13 kts 182°
2026-05-07 14:09 35.21939 -80.94980 725 ft 11 kts 175°
2026-05-07 14:09 35.21879 -80.94991 724 ft 9 kts 246°
2026-05-07 14:10 35.21831 -80.95040 723 ft 10 kts 181°
2026-05-07 14:10 35.21745 -80.95029 720 ft 14 kts 175°
2026-05-07 14:10 35.21628 -80.95023 716 ft 17 kts 177°
2026-05-07 14:10 35.21500 -80.95013 714 ft 19 kts 174°
2026-05-07 14:11 35.21365 -80.94998 711 ft 20 kts 175°
2026-05-07 14:11 35.21235 -80.94986 708 ft 18 kts 176°
2026-05-07 14:11 35.21100 -80.94975 705 ft 20 kts 176°
2026-05-07 14:11 35.20957 -80.94964 702 ft 21 kts 176°
2026-05-07 14:12 35.20808 -80.94951 699 ft 21 kts 176°
2026-05-07 14:12 35.20654 -80.94937 696 ft 22 kts 176°
2026-05-07 14:12 35.20495 -80.94925 692 ft 23 kts 176°
2026-05-07 14:12 35.20332 -80.94912 689 ft 23 kts 176°
2026-05-07 14:13 35.20166 -80.94898 686 ft 24 kts 175°
2026-05-07 14:13 35.20044 -80.94896 683 ft 12 kts 210°
2026-05-07 14:13 35.20024 -80.94984 684 ft 10 kts 263°
2026-05-07 14:13 35.20016 -80.95067 687 ft 7 kts 271°
2026-05-07 14:14 35.20030 -80.95084 688 ft 2 kts
2026-05-07 14:14 35.20051 -80.95083 689 ft 4 kts 359°
2026-05-07 14:14 35.20345 -80.95108 695 ft 88 kts 355°
2026-05-07 14:14 35.21244 -80.95190 713 ft 165 kts 355°
2026-05-07 14:15 35.22494 -80.95292 1193 ft 191 kts 354°
2026-05-07 14:15 35.23712 -80.95763 2248 ft 185 kts 325°
2026-05-07 14:15 35.24709 -80.96610 3253 ft 175 kts 322°
2026-05-07 14:15 35.25740 -80.97495 3747 ft 190 kts 322°
2026-05-07 14:16 35.26805 -80.98524 4202 ft 204 kts 308°
2026-05-07 14:16 35.27277 -81.00181 4594 ft 219 kts 268°
2026-05-07 14:16 35.27018 -81.02116 5012 ft 241 kts 257°
2026-05-07 14:16 35.26621 -81.04157 5547 ft 257 kts 257°
2026-05-07 14:17 35.26240 -81.06292 6363 ft 262 kts 259°
2026-05-07 14:17 35.25890 -81.08465 7306 ft 262 kts 260°
2026-05-07 14:17 35.25569 -81.10622 8251 ft 260 kts 261°
2026-05-07 14:17 35.25266 -81.12762 9150 ft 259 kts 262°
2026-05-07 14:18 35.24971 -81.14932 10026 ft 259 kts 262°
2026-05-07 14:18 35.24681 -81.17106 10712 ft 265 kts 262°
2026-05-07 14:18 35.24381 -81.19398 11082 ft 282 kts 262°
2026-05-07 14:18 35.24068 -81.21791 11648 ft 290 kts 262°
2026-05-07 14:19 35.23750 -81.24215 12408 ft 292 kts 262°
2026-05-07 14:19 35.23429 -81.26668 13156 ft 293 kts 261°
2026-05-07 14:19 35.23110 -81.29094 13881 ft 294 kts 261°
2026-05-07 14:19 35.22784 -81.31543 14560 ft 295 kts 262°
2026-05-07 14:20 35.22456 -81.34032 15240 ft 297 kts 262°
2026-05-07 14:20 35.22135 -81.36483 15921 ft 297 kts 262°
2026-05-07 14:20 35.21806 -81.38987 16585 ft 297 kts 262°
2026-05-07 14:20 35.21481 -81.41436 17263 ft 296 kts 262°
2026-05-07 14:21 35.21150 -81.43923 17867 ft 297 kts 262°
2026-05-07 14:21 35.20822 -81.46413 18361 ft 301 kts 262°
2026-05-07 14:21 35.20477 -81.49005 18588 ft 314 kts 262°
2026-05-07 14:21 35.20128 -81.51659 18983 ft 320 kts 262°
2026-05-07 14:22 35.19771 -81.54343 19483 ft 322 kts 261°
2026-05-07 14:22 35.19412 -81.57027 19980 ft 324 kts 261°
2026-05-07 14:22 35.19047 -81.59754 20463 ft 326 kts 261°
2026-05-07 14:22 35.18629 -81.62453 20912 ft 328 kts 259°
2026-05-07 14:23 35.18093 -81.65151 21360 ft 331 kts 256°
2026-05-07 14:23 35.17450 -81.67851 21820 ft 333 kts 255°
2026-05-07 14:23 35.16783 -81.70576 22285 ft 335 kts 255°
2026-05-07 14:23 35.16121 -81.73286 22691 ft 338 kts 255°
2026-05-07 14:24 35.15443 -81.76043 23125 ft 340 kts 254°
2026-05-07 14:24 35.14764 -81.78798 23592 ft 341 kts 254°
2026-05-07 14:24 35.14079 -81.81581 24053 ft 342 kts 255°
2026-05-07 14:24 35.13392 -81.84357 24526 ft 343 kts 254°
2026-05-07 14:25 35.12707 -81.87114 24987 ft 343 kts 255°
2026-05-07 14:25 35.12015 -81.89909 25387 ft 345 kts 255°
2026-05-07 14:25 35.11319 -81.92701 25763 ft 347 kts 255°
2026-05-07 14:25 35.10621 -81.95517 26183 ft 347 kts 254°
2026-05-07 14:26 35.09913 -81.98356 26600 ft 348 kts 254°
2026-05-07 14:26 35.09219 -82.01156 26964 ft 349 kts 254°
2026-05-07 14:26 35.08513 -82.03999 27308 ft 351 kts 254°
2026-05-07 14:26 35.07809 -82.06844 27692 ft 351 kts 254°
2026-05-07 14:27 35.07109 -82.09663 28062 ft 351 kts 255°
2026-05-07 14:27 35.06395 -82.12550 28368 ft 354 kts 255°
2026-05-07 14:27 35.05687 -82.15402 28692 ft 355 kts 254°
2026-05-07 14:27 35.04972 -82.18264 29029 ft 356 kts 254°
2026-05-07 14:28 35.04251 -82.21149 29342 ft 357 kts 254°
2026-05-07 14:28 35.03523 -82.24040 29657 ft 358 kts 254°
2026-05-07 14:28 35.02704 -82.26930 29876 ft 360 kts 252°
2026-05-07 14:29 35.00784 -82.32521 29885 ft 361 kts 248°
2026-05-07 14:29 34.98459 -82.37958 29889 ft 362 kts 244°
2026-05-07 14:30 34.95944 -82.43240 29889 ft 362 kts 244°
2026-05-07 14:30 34.93410 -82.48548 29885 ft 364 kts 244°
2026-05-07 14:31 34.90865 -82.53835 29895 ft 362 kts 244°
2026-05-07 14:31 34.88311 -82.59129 29889 ft 362 kts 243°
2026-05-07 14:32 34.85543 -82.64246 29887 ft 366 kts 240°
2026-05-07 14:32 34.82626 -82.69309 29897 ft 365 kts 239°
2026-05-07 14:33 34.79704 -82.74352 29886 ft 367 kts 239°
2026-05-07 14:33 34.76786 -82.79443 29886 ft 366 kts 240°
2026-05-07 14:34 34.73921 -82.84542 29881 ft 366 kts 240°
2026-05-07 14:34 34.71045 -82.89645 29880 ft 366 kts 240°
2026-05-07 14:35 34.68187 -82.94704 29881 ft 364 kts 240°
2026-05-07 14:35 34.65312 -82.99781 29884 ft 365 kts 240°
2026-05-07 14:36 34.62430 -83.04868 29884 ft 365 kts 240°
2026-05-07 14:36 34.59553 -83.09933 29892 ft 367 kts 240°
2026-05-07 14:36 34.58095 -83.12505 29670 ft 369 kts 240°
2026-05-07 14:37 34.56644 -83.15054 28874 ft 374 kts 240°
2026-05-07 14:37 34.53702 -83.20225 27234 ft 373 kts 239°
2026-05-07 14:37 34.52236 -83.22794 26585 ft 369 kts 240°
2026-05-07 14:38 34.50791 -83.25325 25986 ft 365 kts 240°
2026-05-07 14:38 34.49354 -83.27840 25401 ft 360 kts 240°
2026-05-07 14:38 34.47945 -83.30303 24847 ft 356 kts 240°
2026-05-07 14:38 34.46538 -83.32729 24303 ft 352 kts 239°
2026-05-07 14:39 34.45136 -83.35143 23761 ft 348 kts 240°
2026-05-07 14:39 34.43760 -83.37503 23236 ft 344 kts 240°
2026-05-07 14:39 34.42396 -83.39850 22718 ft 341 kts 239°
2026-05-07 14:39 34.41031 -83.42189 22211 ft 338 kts 240°
2026-05-07 14:40 34.39703 -83.44469 21716 ft 334 kts 240°
2026-05-07 14:40 34.38367 -83.46758 21218 ft 332 kts 240°
2026-05-07 14:40 34.37049 -83.49025 20715 ft 329 kts 240°
2026-05-07 14:40 34.35737 -83.51270 20232 ft 326 kts 240°
2026-05-07 14:41 34.34443 -83.53485 19769 ft 323 kts 240°
2026-05-07 14:41 34.33141 -83.55714 19282 ft 321 kts 240°
2026-05-07 14:41 34.31861 -83.57898 18801 ft 319 kts 240°
2026-05-07 14:41 34.30584 -83.60052 18330 ft 317 kts 239°
2026-05-07 14:42 34.29186 -83.62122 17873 ft 317 kts 234°
2026-05-07 14:42 34.27687 -83.64045 17422 ft 317 kts 232°
2026-05-07 14:42 34.26075 -83.65850 16985 ft 316 kts 228°
2026-05-07 14:42 34.24440 -83.67606 16537 ft 314 kts 228°
2026-05-07 14:43 34.22807 -83.69358 16105 ft 312 kts 227°
2026-05-07 14:43 34.21206 -83.71069 15680 ft 310 kts 227°
2026-05-07 14:43 34.19597 -83.72784 15258 ft 308 kts 227°
2026-05-07 14:43 34.17995 -83.74491 14829 ft 305 kts 226°
2026-05-07 14:44 34.16432 -83.76153 14408 ft 298 kts 226°
2026-05-07 14:44 34.14878 -83.77801 14001 ft 295 kts 226°
2026-05-07 14:44 34.13335 -83.79440 13594 ft 294 kts 226°
2026-05-07 14:44 34.11817 -83.81052 13195 ft 292 kts 226°
2026-05-07 14:45 34.10297 -83.82661 12807 ft 290 kts 226°
2026-05-07 14:45 34.08795 -83.84257 12425 ft 288 kts 226°
2026-05-07 14:45 34.07297 -83.85866 12032 ft 287 kts 226°
2026-05-07 14:45 34.05823 -83.87454 11652 ft 285 kts 226°
2026-05-07 14:46 34.04348 -83.89039 11279 ft 284 kts 226°
2026-05-07 14:46 34.02876 -83.90619 10906 ft 283 kts 226°
2026-05-07 14:46 34.01414 -83.92187 10571 ft 279 kts 226°
2026-05-07 14:46 33.99993 -83.93708 10249 ft 273 kts 225°
2026-05-07 14:47 33.98580 -83.95201 9867 ft 260 kts 223°
2026-05-07 14:47 33.97030 -83.96246 9676 ft 261 kts 206°
2026-05-07 14:47 33.95213 -83.96700 9593 ft 275 kts 191°
2026-05-07 14:47 33.93279 -83.96687 9418 ft 280 kts 186°
2026-05-07 14:48 33.91292 -83.96612 8659 ft 293 kts 185°
2026-05-07 14:48 33.89254 -83.96522 8173 ft 294 kts 185°
2026-05-07 14:48 33.87227 -83.96424 7970 ft 283 kts 185°
2026-05-07 14:48 33.85297 -83.96326 7962 ft 270 kts 185°
2026-05-07 14:49 33.83442 -83.96243 7963 ft 265 kts 186°
2026-05-07 14:49 33.81576 -83.96217 7962 ft 270 kts 193°
2026-05-07 14:49 33.79759 -83.96654 7846 ft 262 kts 202°
2026-05-07 14:49 33.78035 -83.97239 7204 ft 262 kts 204°
2026-05-07 14:50 33.76270 -83.97884 6484 ft 267 kts 204°
2026-05-07 14:50 33.74497 -83.98540 6066 ft 266 kts 204°
2026-05-07 14:50 33.72746 -83.99190 5679 ft 264 kts 204°
2026-05-07 14:50 33.70985 -83.99858 5281 ft 263 kts 204°
2026-05-07 14:51 33.69281 -84.00526 4987 ft 250 kts 204°
2026-05-07 14:51 33.67661 -84.01163 4474 ft 246 kts 204°
2026-05-07 14:51 33.66151 -84.02032 4051 ft 241 kts 226°
2026-05-07 14:51 33.65212 -84.03707 3970 ft 244 kts 253°
2026-05-07 14:52 33.64893 -84.05666 3970 ft 243 kts 267°
2026-05-07 14:52 33.64893 -84.07713 3966 ft 245 kts 273°
2026-05-07 14:52 33.64961 -84.09731 3959 ft 235 kts 273°
2026-05-07 14:52 33.65005 -84.11631 3959 ft 223 kts 272°
2026-05-07 14:53 33.65022 -84.13466 3960 ft 216 kts 271°
2026-05-07 14:53 33.65023 -84.15241 3967 ft 215 kts 271°
2026-05-07 14:53 33.65017 -84.17033 3915 ft 209 kts 271°
2026-05-07 14:53 33.65007 -84.18749 3754 ft 201 kts 271°
2026-05-07 14:54 33.64997 -84.20348 3671 ft 186 kts 271°
2026-05-07 14:54 33.64989 -84.21905 3223 ft 190 kts 271°
2026-05-07 14:54 33.64981 -84.23455 3024 ft 178 kts 271°
2026-05-07 14:54 33.64976 -84.24923 2991 ft 175 kts 272°
2026-05-07 14:55 33.64972 -84.26366 2993 ft 174 kts 271°
2026-05-07 14:55 33.64968 -84.27832 2988 ft 173 kts 271°
2026-05-07 14:55 33.64965 -84.29265 2859 ft 169 kts 272°
2026-05-07 14:55 33.64962 -84.30630 2631 ft 159 kts 272°
2026-05-07 14:56 33.64959 -84.31891 2437 ft 149 kts 272°
2026-05-07 14:56 33.64958 -84.33143 2256 ft 149 kts 272°
2026-05-07 14:56 33.64957 -84.34376 2075 ft 149 kts 272°
2026-05-07 14:56 33.64956 -84.35626 1882 ft 150 kts 271°
2026-05-07 14:57 33.64954 -84.36884 1682 ft 151 kts 272°
2026-05-07 14:57 33.64954 -84.38152 1478 ft 152 kts 272°
2026-05-07 14:57 33.64953 -84.39404 1275 ft 150 kts 271°
2026-05-07 14:57 33.64953 -84.40653 1084 ft 150 kts 271°
2026-05-07 14:58 33.64950 -84.41878 979 ft 137 kts 271°
2026-05-07 14:58 33.64956 -84.42722 993 ft 57 kts 268°
2026-05-07 14:58 33.64948 -84.43077 1001 ft 23 kts 253°
2026-05-07 14:58 33.64915 -84.43198 1004 ft 11 kts 252°
2026-05-07 14:59 33.64891 -84.43265 1005 ft 0 kts 243°
2026-05-07 14:59 33.64880 -84.43290 1006 ft 10 kts 239°
2026-05-07 14:59 33.64814 -84.43319 1007 ft 10 kts 164°
2026-05-07 15:00 33.64790 -84.43237 1006 ft 12 kts 90°
2026-05-07 15:00 33.64766 -84.43138 1004 ft 13 kts 164°
2026-05-07 15:00 33.64668 -84.43143 1004 ft 13 kts 199°
2026-05-07 15:00 33.64618 -84.43230 1006 ft 12 kts 241°
2026-05-07 15:01 33.64562 -84.43288 1007 ft 10 kts 163°
2026-05-07 15:01 33.64541 -84.43202 1005 ft 12 kts 91°
2026-05-07 15:01 33.64540 -84.43088 1004 ft 14 kts 90°
2026-05-07 15:01 33.64542 -84.42966 1003 ft 15 kts 89°
2026-05-07 15:02 33.64545 -84.42831 1000 ft 13 kts 93°
2026-05-07 15:02 33.64476 -84.42781 1001 ft 11 kts 202°
2026-05-07 15:02 33.64399 -84.42808 1001 ft 12 kts 177°
2026-05-07 15:02 33.64313 -84.42805 1001 ft 12 kts 179°
2026-05-07 15:03 33.64227 -84.42807 1003 ft 11 kts 178°
2026-05-07 15:03 33.64146 -84.42806 1004 ft 11 kts 180°
2026-05-07 15:03 33.64066 -84.42806 1004 ft 11 kts 180°
2026-05-07 15:03 33.63979 -84.42806 1004 ft 12 kts 180°
2026-05-07 15:04 33.63891 -84.42807 1005 ft 11 kts 180°
2026-05-07 15:04 33.63821 -84.42806 1004 ft 10 kts 179°
2026-05-07 15:04 33.63775 -84.42806 1004 ft 1 kts 196°
2026-05-07 15:04 33.63767 -84.42821 1004 ft 1 kts 255°
2026-05-07 15:05 33.63770 -84.42835 1004 ft 1 kts 288°
2026-05-07 15:05 33.63775 -84.42852 1005 ft 2 kts 288°
2026-05-07 15:05 33.63779 -84.42870 1005 ft 1 kts 288°
2026-05-07 15:05 33.63782 -84.42877 1005 ft 0 kts 288°
2026-05-07 15:06 33.63782 -84.42878 1005 ft 0 kts 288°